Flag for Cameroon Weather past 2 weeks in Douala, Cameroon

Now
82 °F

Passing clouds.


Feels Like: 92 °F
Forecast: 77 / 93 °F
Wind: 5 mph from South

Location: Douala Obs.

Current Time: Mar 4, 2015 at 12:29:10 AM

Latest Report: Mar 4, 2015 at 12:00 AM


Visibility: N/A

Pressure: 29.89 "Hg

Humidity: 89%

Dew point: 79 °F

Location of DoualaLocation

Historic Weather in Douala — Graph

°F

Douala temperature yesterday

Maximum temperature yesterday: 91 °F (at 1:00 PM)
Minimum temperature yesterday: 73 °F (at 5:00 AM)
Average temperature yesterday: 83 °F

Past Weeks' High & Low Weather Summary

 TemperatureHumidityPressure
High93 °F (Feb 17, 1:00 PM)100% (Feb 17, 3:00 AM)29.92 "Hg (Feb 17, 3:00 AM)
Low72 °F (Feb 19, 2:00 AM)59% (Feb 17, 1:00 PM)29.71 "Hg (Feb 17, 6:00 PM)
Average82 °F84%29.81 "Hg
* Reported Feb 16 11:00 PM — Mar 3 11:00 PM, Douala, Weather by CustomWeather, © 2015

Note: Actual official high and low records may vary slightly from our data, if they occured in-between our weather recording intervals... More about our weather records

Advertising

Douala weather history for previous 24 hours

 ConditionsComfort  
Time TempWeatherWind HumidityBarometerVisibility
11:00 PM
Tue, Mar 3
82 °FPassing clouds.5 mph89%29.89 "HgN/A
10:00 PM82 °FPassing clouds.2 mph89%29.89 "HgN/A
9:00 PM84 °FPassing clouds.5 mph84%29.86 "HgN/A
8:00 PM84 °FPartly cloudy.7 mph84%29.80 "HgN/A
7:00 PM84 °FPartly cloudy.7 mph79%29.77 "HgN/A
6:00 PM86 °FBroken clouds.12 mph75%29.77 "HgN/A
5:00 PM90 °FPartly sunny.14 mph63%29.74 "HgN/A
4:00 PM90 °FPassing clouds.12 mph63%29.74 "HgN/A
3:00 PM91 °FPassing clouds.12 mph59%29.77 "HgN/A
2:00 PM91 °FPartly sunny.7 mph59%29.80 "HgN/A
1:00 PM91 °FPartly sunny.7 mph63%29.83 "Hg5 mi
12:00 PM90 °FPartly sunny.5 mph63%29.86 "Hg5 mi
11:00 AM88 °FPartly sunny.5 mph66%29.86 "Hg5 mi
10:00 AM86 °FPartly sunny.7 mph70%29.89 "Hg5 mi
9:00 AM82 °FScattered clouds.No wind84%29.89 "Hg4 mi
8:00 AM77 °FFog.No wind94%29.83 "Hg1 mi
7:00 AM73 °FFog.No wind100%29.80 "Hg2 mi
6:00 AM73 °FPassing clouds.No wind100%29.80 "Hg5 mi
5:00 AM73 °FThunderstorms. Passing clouds.No wind100%29.77 "HgN/A
4:00 AM75 °FThunderstorms. Passing clouds.No wind89%29.80 "HgN/A
3:00 AM75 °FThunderstorms. Passing clouds.No wind89%29.80 "HgN/A
2:00 AM81 °FThunderstorms. Passing clouds.No wind89%29.83 "Hg5 mi
1:00 AM81 °FPassing clouds.No wind89%29.83 "HgN/A
12:00 AM81 °FPassing clouds.5 mph89%29.83 "HgN/A
Weather by CustomWeather, © 2015

See weather overviewHow to use our weather pages